Zurück zum Katalog

STARLINK-34663

AktivKommunikationVLEO
NORAD 64807·PAYLOAD·🇺🇸 United States

Gestartet Jul 16, 2025 von Vandenberg Space Force Base

Loading…

Nächste Überflüge (nächste 24 Stunden)

TLE

AktuellSource: CelesTrak SupGP

Epoche: Sep 15, 2026, 02:26 UTC

1 64807C 25150T   26258.10187500  .00022983  00000+0  19263-2 0  2587
2 64807  70.0026  16.9167 0003490 266.9691 251.0182 14.98312991    14

Verfolge STARLINK-34663 in Echtzeit mit AllMySat

Download on the App Store